Simultaneous Nadir Overpasses (SNOs) Predictions

Prediction of SNOs between GOES-15 and TERRA Satellite Orbit:

Table of predicted SNOs for the next 14.0 days since TLE Epoch: 1/6/2024
Index Date Time (GOES-15) GOES-15 Lat,Lon TERRA Lat,Lon Distance(km) Time Diff (sec)
1 01/06/2024 05:39:44 -0.05, 61.41 -0.69, 64.36 336.02 80
2 01/06/2024 17:59:55 0.04, 61.44 -0.37, 59.45 225.37 80
3 01/08/2024 17:40:24 0.04, 61.48 0.49, 63.52 232.36 80
4 01/09/2024 06:00:27 -0.04, 61.47 0.54, 58.65 320.77 80
5 01/11/2024 05:46:15 -0.04, 61.52 -0.28, 62.72 136.81 80
6 01/11/2024 18:06:27 0.03, 61.54 -0.78, 57.82 423.43 80
7 01/13/2024 17:46:55 0.03, 61.59 0.06, 61.89 33.48 80
8 01/15/2024 17:30:03 0.02, 61.64 0.91, 65.96 490.25 80
9 01/16/2024 05:50:06 -0.02, 61.65 0.09, 61.08 64.07 80
10 01/18/2024 05:35:53 -0.02, 61.70 -0.73, 65.16 393.18 80
11 01/18/2024 17:56:06 0.01, 61.71 -0.27, 60.24 166.13 80
